Regional Weather Roundup
Issued by NWS Upton, NY

Current Version | Previous Version | Text Only | Print | Product List | Glossary On
Versions: 1 2 3 4 5 6 7 8 9 10 11 12 13 14 15 16 17 18 19 20 21 22 23 24 25 26 27 28 29 30 31 32 33 34 35 36 37 38 39 40 41 42 43 44 45 46 47 48 49 50
000 ASUS41 KOKX 010008 RWROKX REGIONAL WEATHER ROUNDUP NATIONAL WEATHER SERVICE NEW YORK NY 800 PM EDT FRI SEP 30 2016 NOTE: "FAIR" INDICATES FEW OR NO CLOUDS BELOW 12,000 FEET WITH NO SIGNIFICANT WEATHER AND/OR OBSTRUCTIONS TO VISIBILITY. NYZ071-072-176-178-NJZ106-104-010100- NEW YORK CITY METRO AREA CITY SKY/WX TMP DP RH WIND PRES REMARKS Central Park CLOUDY 57 55 93 E9 30.28S FOG LaGuardia APRT LGT RAIN 62 58 86 NE22G29 30.25S FOG Kennedy INTL LGT RAIN 59 57 93 NE17G25 30.25S FOG Newark/Liberty LGT RAIN 58 57 97 N16 30.25S FOG Bronx Bot Gard N/A 55 54 94 N10 30.26S Wall St Helipt CLOUDY 61 59 94 NE17G23 30.24S Teterboro DRIZZLE 57 54 89 NE7 30.26S FOG $$ NYZ177-179-078>081-010100- LONG ISLAND NEW YORK CITY SKY/WX TMP DP RH WIND PRES REMARKS Farmingdale CLOUDY 59 57 93 NE14 30.23F MacArthur/ISP CLOUDY 59 57 93 NE18G25 30.24S Shirley LGT RAIN 57 56 96 NE7 30.25S FOG Riverhead NOT AVBL Westhampton LGT RAIN 59 57 93 NE16G25 30.26F Southampton N/A 59 57 94 NE8 30.21S Bridgehampton N/A 57 57 100 N5 30.10F East Hampton LGT RAIN 59 57 96 NE9G23 30.25S Montauk N/A 60 59 96 NE16G29 30.27S $$ NYZ052-065-067-010100- HUDSON VALLEY CITY SKY/WX TMP DP RH WIND PRES REMARKS White Plains CLOUDY 56 53 90 NE9 30.27R Newburgh CLOUDY 54 54 100 NE14 30.31F FOG Montgomery LGT RAIN 54 53 97 NE12 30.30S FOG Poughkeepsie CLOUDY 54 52 93 N7 30.31S Albany LGT RAIN 54 49 83 CALM 30.37R $$ NJZ001-105-106-008-010-013-015-019>022-104-010100- NEW JERSEY CITY SKY/WX TMP DP RH WIND PRES REMARKS Newark/Liberty LGT RAIN 58 57 97 N16 30.25S FOG Teterboro DRIZZLE 57 54 89 NE7 30.26S FOG Caldwell CLOUDY 57 55 93 VRB6 30.27S FOG Morristown CLOUDY 55 55 100 NE8 30.27S FOG Somerville CLOUDY 58 55 90 VRB7 30.24R Linden NOT AVBL Sussex CLOUDY 54 54 100 NE9G17 30.29S FOG Abdover N/A 55 54 96 VRB5 30.27S Trenton CLOUDY 59 57 93 NE7 30.23S FOG Millville CLOUDY 63 63 100 NE16 30.17R Atlantic City CLOUDY 63 62 97 NE14 30.17R FOG Wrightstown LGT RAIN 61 59 94 NE14 30.18F FOG Toms River LGT RAIN 62 61 96 NE18G24 30.21R FOG Belmar LGT RAIN 61 60 97 NE14G21 30.23R FOG $$ PAZ047>061-062-071-010100- EASTERN PENNSYLVANIA CITY SKY/WX TMP DP RH WIND PRES REMARKS Philadelphia CLOUDY 61 58 90 NE14G23 30.21R Allentown CLOUDY 57 54 89 NE13 30.25R FOG Scranton CLOUDY 56 51 84 NE7 30.25S $$ CTZ002-004>006-009-010-012-RIZ004-006-007-MAZ004-011-015-010100- SOUTHERN NEW ENGLAND IN CT CITY SKY/WX TMP DP RH WIND PRES REMARKS Bradley INTL LGT RAIN 53 50 89 N15 30.36S FOG Hartford LGT RAIN 54 53 97 N12 30.33S FOG Danbury CLOUDY 53 52 96 NE10 30.30S FOG Wtrbury/Oxford LGT RAIN 54 48 82 NE12G23 30.30S FOG Bridgeport CLOUDY 58 54 86 NE14G24 30.28S Meriden LGT RAIN 56 52 86 N9 30.31F New Haven CLOUDY 56 54 93 NE13 30.28F FOG Chester CLOUDY 55 54 94 NE14 30.29S FOG Groton LGT RAIN 59 54 83 NE16G25 30.27F Wilimantic LGT RAIN 56 54 93 NE14 30.33F FOG IN RI CITY SKY/WX TMP DP RH WIND PRES REMARKS Providence RAIN 57 55 93 NE13 30.35S FOG Block Island LGT RAIN 59 58 96 NE20G30 30.27S Westerly CLOUDY 58 54 86 NE9G18 30.29F FOG IN MA CITY SKY/WX TMP DP RH WIND PRES REMARKS Boston LGT RAIN 57 55 93 NE16 30.39S Worcester LGT RAIN 49 47 93 NE13G21 30.37S FOG Westfield LGT RAIN 52 51 97 N13G20 30.37S FOG Provincetown LGT RAIN 58 56 93 E12 30.37S Nantucket CLOUDY 60 57 89 NE22G33 30.29F FOG $$ ANZ330-335-338-340-345-350-353-355-010100- COASTAL MARINE OBSERVATIONS STATION/POSITION TIME SKY/WX TEMP WIND PRES VSBY WAVE AIR SEA DIR/SP/G HT/PER (UTC) (F) (DEG/KT/KT) (MB) (MI) (FT/S) NY HARB ENTRANCE 2350 62 69 50/ 27/ 33 1022.0 11/ 9 20S FIRE ISLAND 2250 63 67 60/ 31/ 37 1020.7 13/ 9 GREAT SOUTH BAY 2330 59 64 40/ 17/ 21 N/A 23 SSW MONTAUK P 2250 61 65 70/ 31/ 37 1022.7 12/ 8 15 E BARNEGAT LI 2330 69 N/A 13/10 HUDSON CANYON 2250 69 70 1019.3 11/ 9 KINGS POINT 2330 59 68 N/A EXECUTION ROCKS 2245 61 60/ 25/ 31 N/A CENTRAL LI SOUND NOT AVBL EASTERN LI SOUND NOT AVBL ROBBINS REEF 2330 60 40/ 18/ 23 N/A $$ >>>>>>>>>>>>>>>>>>>>>>>>>>>> KEY <<<<<<<<<<<<<<<<<<<<<<<<<<< > < > SKY/WX - Sky Condition/Present Weather < > TMP - Temperature in Fahrenheit < > DP - Dew Point in Fahrenheit < > RH - Relative Humidity in Percent < > WIND - Direction (from) and Speed in MPH < > PRES - Mean Sea Level Pressure (inches of Hg) < > WCI - Wind Chill Index < > VSB - VISIBILITY IN MILES < > HX - HEAT INDEX < > TC - TEMPERATURE IN CELSIUS < > VRB - VARIABLE WIND DIRECTION < > < >>>>>>>>>>>>>>>>>>>>>>>>>>>> KEY <<<<<<<<<<<<<<<<<<<<<<<<<<<

USA.gov is the U.S. government's official web portal to all federal, state and local government web resources and services.